EI4HQ Weather Reports


Display with metric or nautical units.
time (UTC)temp
F
wind
direction
speed
MPH
gust
MPH
rain 1hr
in
rain 24hr
in
rain mn
in
humidity
%
barometer
mb
20260508090903 53 129 2.0 4.0 0.00 0.00 0.00 77 1015.2
20260508090003 54 129 2.0 5.0 0.00 0.00 0.00 78 1015.1
20260508085403 54 130 3.0 5.0 0.00 0.00 0.00 78 1015.1
20260508084503 54 133 3.0 6.0 0.00 0.00 0.00 80 1015.0
20260508083603 53 119 2.0 6.0 0.00 0.00 0.00 82 1015.1
20260508082703 53 61 1.0 4.0 0.00 0.00 0.00 83 1015.1
20260508081803 52 61 1.0 3.0 0.00 0.00 0.00 84 1015.1
20260508080903 51 61 1.0 4.0 0.00 0.00 0.00 85 1015.1
20260508080003 50 50 1.0 5.0 0.00 0.00 0.00 85 1015.0
20260508075403 50 40 1.0 3.0 0.00 0.00 0.00 86 1015.0
20260508074503 49 67 1.0 3.0 0.00 0.00 0.00 86 1015.0
20260508073603 49 42 1.0 3.0 0.00 0.00 0.00 87 1014.9
20260508072703 48 346 0.0 2.0 0.00 0.00 0.00 87 1014.8
20260508071803 48 0 0.0 0.0 0.00 0.00 0.00 87 1014.8
20260508070903 48 346 1.0 3.0 0.00 0.00 0.00 87 1014.7
20260508070003 47 345 2.0 4.0 0.00 0.00 0.00 87 1014.6
20260508065403 47 345 2.0 4.0 0.00 0.00 0.00 88 1014.5
20260508064503 46 345 3.0 4.0 0.00 0.00 0.00 88 1014.4
20260508063603 46 354 4.0 5.0 0.00 0.00 0.00 87 1014.3
20260508062703 47 6 2.0 4.0 0.00 0.00 0.00 88 1014.3
20260508061803 47 14 2.0 5.0 0.00 0.00 0.00 88 1014.2
20260508060903 46 31 3.0 5.0 0.00 0.00 0.00 88 1014.1
20260508060003 46 32 1.0 4.0 0.00 0.00 0.00 88 1014.1
20260508055403 46 32 0.0 2.0 0.00 0.00 0.00 89 1014.1
20260508054503 46 32 2.0 3.0 0.00 0.00 0.00 88 1014.0
20260508053603 45 32 1.0 2.0 0.00 0.00 0.00 88 1014.0
20260508052703 45 32 2.0 4.0 0.00 0.00 0.00 88 1013.9
20260508051818 46 32 0.0 3.0 0.00 0.00 0.00 88 1013.9
20260508050903 46 32 1.0 3.0 0.00 0.00 0.00 88 1013.9
20260508050003 45 32 0.0 2.0 0.00 0.00 0.00 88 1014.0
20260508045403 45 32 0.0 1.0 0.00 0.00 0.00 88 1013.9
20260508044503 45 32 1.0 2.0 0.00 0.00 0.00 88 1014.0
20260508043603 45 32 1.0 2.0 0.00 0.00 0.00 88 1013.9
20260508042703 45 32 2.0 3.0 0.00 0.00 0.00 88 1013.9
20260508041803 45 32 0.0 2.0 0.00 0.00 0.00 88 1013.8
20260508040903 45 32 1.0 2.0 0.00 0.00 0.00 87 1013.8
20260508040003 45 32 0.0 2.0 0.00 0.00 0.00 87 1013.8
20260508035403 45 17 1.0 3.0 0.00 0.00 0.00 87 1013.8
20260508034503 45 344 2.0 3.0 0.00 0.00 0.00 87 1013.8
20260508033603 45 344 2.0 4.0 0.00 0.00 0.00 87 1013.9
20260508032703 45 344 3.0 4.0 0.00 0.00 0.00 87 1013.9
20260508031803 46 336 3.0 5.0 0.00 0.00 0.00 87 1013.9
20260508030903 46 321 3.0 5.0 0.00 0.00 0.00 87 1013.9
20260508030003 45 321 2.0 3.0 0.00 0.00 0.00 87 1013.9
20260508025403 46 321 1.0 3.0 0.00 0.00 0.00 87 1013.9
20260508024503 46 0 0.0 0.0 0.00 0.00 0.00 87 1014.0
20260508023603 46 0 0.0 0.0 0.00 0.00 0.00 87 1014.0
20260508022703 46 0 0.0 0.0 0.00 0.00 0.00 87 1013.9
20260508021803 46 0 0.0 0.0 0.00 0.00 0.00 86 1013.9
20260508020903 46 0 0.0 0.0 0.00 0.00 0.00 86 1013.9
20260508020003 46 0 0.0 0.0 0.00 0.00 0.00 86 1013.8
20260508015403 46 321 0.0 1.0 0.00 0.00 0.00 86 1013.8
20260508014503 46 321 1.0 3.0 0.00 0.00 0.00 86 1013.8
20260508013603 46 311 2.0 4.0 0.00 0.00 0.00 86 1013.9
20260508012703 46 0 0.0 0.0 0.00 0.00 0.00 86 1013.9
20260508011803 47 0 0.0 0.0 0.00 0.00 0.00 86 1013.8
20260508010903 47 0 0.0 0.0 0.00 0.00 0.00 86 1013.8
20260508010003 47 0 0.0 0.0 0.00 0.00 0.00 86 1013.8
20260508005403 47 0 0.0 0.0 0.00 0.00 0.00 86 1013.9
20260508004503 47 0 0.0 0.0 0.00 0.00 0.00 86 1014.0
20260508003603 47 0 0.0 0.0 0.00 0.00 0.00 85 1014.0
20260508002703 47 0 0.0 0.0 0.00 0.00 0.00 85 1014.0
20260508001803 47 0 0.0 0.0 0.00 0.00 0.00 85 1014.0
20260508000903 47 0 0.0 0.0 0.00 0.00 0.00 85 1014.0
20260508000003 47 235 1.0 2.0 0.00 0.00 0.00 84 1014.1
20260507235403 47 235 0.0 2.0 0.00 0.00 0.00 84 1014.1
20260507234503 47 0 0.0 0.0 0.00 0.00 0.00 84 1014.1
20260507233603 47 0 0.0 0.0 0.00 0.00 0.00 84 1014.1
20260507232703 47 235 1.0 2.0 0.00 0.00 0.00 83 1014.1
20260507231803 47 235 1.0 2.0 0.00 0.00 0.00 83 1014.2
20260507230903 48 235 1.0 2.0 0.00 0.00 0.00 83 1014.2
20260507230003 48 235 0.0 2.0 0.00 0.00 0.00 83 1014.1
20260507225403 48 235 0.0 2.0 0.00 0.00 0.00 82 1014.1
20260507224504 48 235 0.0 1.0 0.00 0.00 0.00 82 1014.1
20260507223603 49 235 1.0 2.0 0.00 0.00 0.00 82 1014.1
20260507222703 49 235 1.0 2.0 0.00 0.00 0.00 82 1014.1
20260507221803 49 235 1.0 2.0 0.00 0.00 0.00 81 1014.2
20260507220903 49 235 0.0 2.0 0.00 0.00 0.00 81 1014.2
20260507220003 49 235 0.0 2.0 0.00 0.00 0.00 81 1014.2
20260507215403 49 235 1.0 2.0 0.00 0.00 0.00 81 1014.1
20260507214503 49 235 1.0 3.0 0.00 0.00 0.00 81 1014.1
20260507213603 49 235 1.0 3.0 0.00 0.00 0.00 81 1014.0
20260507212703 49 235 1.0 3.0 0.00 0.00 0.00 80 1014.0
20260507211803 49 235 0.0 2.0 0.00 0.00 0.00 80 1014.0
20260507210903 49 235 0.0 2.0 0.00 0.00 0.00 79 1013.9
20260507210003 50 226 0.0 3.0 0.00 0.00 0.00 79 1013.8
20260507205403 50 205 1.0 4.0 0.00 0.00 0.00 79 1013.8
20260507204503 50 201 2.0 4.0 0.00 0.00 0.00 78 1013.6
20260507203603 50 203 2.0 4.0 0.00 0.00 0.00 77 1013.6
20260507202703 50 204 2.0 4.0 0.00 0.00 0.00 77 1013.5
20260507201803 51 192 2.0 5.0 0.00 0.00 0.00 76 1013.5
20260507200903 51 191 2.0 6.0 0.00 0.00 0.00 75 1013.4
20260507200003 51 198 2.0 6.0 0.00 0.00 0.00 75 1013.3
20260507195403 51 206 2.0 8.0 0.00 0.00 0.00 75 1013.3
20260507194503 52 199 3.0 8.0 0.00 0.00 0.00 75 1013.3
20260507193603 52 188 3.0 7.0 0.00 0.00 0.00 74 1013.1
20260507192703 52 197 3.0 7.0 0.00 0.00 0.00 74 1013.1
20260507191803 52 187 3.0 6.0 0.00 0.00 0.00 74 1013.0
20260507190903 53 191 3.0 8.0 0.00 0.00 0.00 73 1013.0
20260507190004 53 219 3.0 8.0 0.00 0.00 0.00 72 1013.0
20260507185403 53 226 3.0 7.0 0.00 0.00 0.00 72 1013.0
20260507184503 54 210 3.0 7.0 0.00 0.00 0.00 72 1013.0
20260507183603 54 230 4.0 9.0 0.00 0.00 0.00 72 1012.9
20260507182703 54 236 4.0 8.0 0.00 0.00 0.00 72 1012.9
20260507181803 54 223 3.0 8.0 0.00 0.00 0.00 72 1012.9
20260507180903 54 198 3.0 8.0 0.00 0.00 0.00 72 1012.8
20260507180003 54 197 3.0 10.0 0.00 0.00 0.00 71 1012.9
20260507175403 54 197 4.0 10.0 0.00 0.00 0.00 71 1012.8
20260507174503 54 205 4.0 7.0 0.00 0.00 0.00 72 1012.8
20260507173603 54 185 6.0 11.0 0.00 0.00 0.00 71 1012.9
20260507172703 54 180 7.0 15.0 0.00 0.00 0.00 70 1012.8
20260507171803 54 185 5.0 14.0 0.00 0.00 0.00 70 1012.9
20260507170903 54 188 5.0 12.0 0.00 0.00 0.00 70 1013.0
20260507170003 54 190 4.0 9.0 0.00 0.00 0.00 70 1013.0
20260507165403 55 188 4.0 9.0 0.00 0.00 0.00 70 1013.0
20260507164503 54 185 4.0 10.0 0.00 0.00 0.00 70 1013.0
20260507163603 53 217 4.0 11.0 0.00 0.00 0.00 71 1013.0
20260507162703 53 195 5.0 9.0 0.00 0.00 0.00 71 1012.9
20260507161803 53 196 4.0 9.0 0.00 0.00 0.00 73 1012.9
20260507160903 53 186 6.0 13.0 0.00 0.00 0.00 72 1012.9
20260507160003 54 188 6.0 11.0 0.00 0.00 0.00 73 1012.9
20260507155403 54 192 5.0 9.0 0.00 0.00 0.00 72 1013.0
20260507154503 54 183 6.0 12.0 0.00 0.00 0.00 72 1013.0
20260507153603 54 182 6.0 14.0 0.00 0.00 0.00 72 1013.0
20260507152703 54 181 7.0 12.0 0.00 0.00 0.00 71 1012.9
20260507151803 54 182 7.0 12.0 0.00 0.00 0.00 70 1012.9
20260507150903 54 181 8.0 15.0 0.00 0.00 0.00 70 1012.9
20260507150003 54 178 8.0 15.0 0.00 0.00 0.00 69 1012.9
20260507145403 55 183 5.0 14.0 0.00 0.00 0.00 68 1012.8
20260507144503 55 191 5.0 11.0 0.00 0.00 0.00 68 1012.9
20260507143603 55 190 5.0 11.0 0.00 0.00 0.00 69 1012.9
20260507142703 55 194 4.0 9.0 0.00 0.00 0.00 68 1013.0
20260507141803 55 207 4.0 12.0 0.00 0.00 0.00 68 1013.0
20260507140903 55 205 6.0 14.0 0.00 0.00 0.00 68 1013.1
20260507140003 55 176 8.0 14.0 0.00 0.00 0.00 69 1013.0
20260507135403 55 177 9.0 15.0 0.00 0.00 0.00 67 1013.0
20260507134503 55 186 5.0 12.0 0.00 0.00 0.00 68 1013.1
20260507133603 55 193 5.0 12.0 0.00 0.00 0.00 69 1013.1
20260507132703 54 187 6.0 14.0 0.00 0.00 0.00 68 1013.2
20260507131803 54 184 7.0 13.0 0.00 0.00 0.00 68 1013.1
20260507130903 54 175 9.0 14.0 0.00 0.00 0.00 69 1013.1
20260507130003 55 179 8.0 15.0 0.00 0.00 0.00 68 1013.1
20260507125403 56 182 7.0 15.0 0.00 0.00 0.00 67 1013.2
20260507124503 56 180 8.0 15.0 0.00 0.00 0.00 65 1013.2
20260507123603 57 180 7.0 16.0 0.00 0.00 0.00 66 1013.3
20260507122705 57 179 7.0 13.0 0.00 0.00 0.00 65 1013.3
20260507121803 56 215 5.0 10.0 0.00 0.00 0.00 68 1013.3
20260507120903 55 185 6.0 13.0 0.00 0.00 0.00 66 1013.3
20260507120003 56 200 5.0 10.0 0.00 0.00 0.00 68 1013.3
20260507115403 55 189 6.0 13.0 0.00 0.00 0.00 68 1013.3
20260507114503 55 183 7.0 13.0 0.00 0.00 0.00 70 1013.3
20260507113603 54 192 6.0 13.0 0.00 0.00 0.00 70 1013.3
20260507112703 55 194 5.0 11.0 0.00 0.00 0.00 71 1013.3
20260507111803 55 219 5.0 11.0 0.00 0.00 0.00 70 1013.2
20260507110903 56 199 6.0 13.0 0.00 0.00 0.00 69 1013.2
20260507110003 57 213 3.0 9.0 0.00 0.00 0.00 63 1013.3
20260507105403 57 225 3.0 7.0 0.00 0.00 0.00 59 1013.3
20260507104503 58 193 3.0 7.0 0.00 0.00 0.00 60 1013.3
20260507103603 59 215 3.0 7.0 0.00 0.00 0.00 57 1013.3
20260507102703 60 245 3.0 9.0 0.00 0.00 0.00 56 1013.3
20260507101803 59 218 3.0 7.0 0.00 0.00 0.00 53 1013.2
20260507100903 59 239 5.0 11.0 0.00 0.00 0.00 54 1013.3
20260507100003 58 240 4.0 11.0 0.00 0.00 0.00 55 1013.4
20260507095403 58 240 4.0 9.0 0.00 0.00 0.00 61 1013.3
20260507094503 58 247 3.0 9.0 0.00 0.00 0.00 62 1013.3
20260507093603 57 242 4.0 10.0 0.00 0.00 0.00 62 1013.3
20260507092703 58 238 4.0 9.0 0.00 0.00 0.00 64 1013.2
20260507091803 57 238 3.0 9.0 0.00 0.00 0.00 68 1013.1